Location: Siamanna
(39.9206°N, 8.7644°E)
Time: 07:11:03
(UTC+00:00)

Daily predictions for brighter satellites

Satellite Brightness Start Highest point End
(mag) Time Altitude Azimuth Time Altitude Azimuth Time Altitude Azimuth
BREEZE-M DEB (TANK) 4.4 18:46:16 10° NW 18:50:23 81° NE 19:06:32 10° ESE
Cosmos 2218 Rocket 4.0 18:45:38 10° S 18:51:42 61° E 18:57:44 10° NNE
Cosmos 405 2.9 18:51:55 10° N 18:55:23 88° E 18:58:50 10° S
H-2A R/B 2.3 18:50:20 10° S 18:55:31 74° WSW 19:00:36 10° NNW
Cosmos 1933 3.7 18:52:42 10° NNW 18:56:47 73° W 19:00:51 10° S
Cosmos 1782 3.2 18:55:04 10° N 18:58:57 46° E 19:02:50 10° SSE
MOS 1 4.4 18:54:08 10° SSE 18:59:38 59° ENE 19:05:12 10° N
ERBS 4.3 18:56:48 10° WSW 18:59:50 32° NW 19:02:52 10° NNE
Cosmos 1980 Rocket 4.4 18:59:42 10° NE 19:00:36 10° NE 19:01:30 10° NE
DMSP B5D2-2 4.2 19:02:29 10° NNE 19:07:38 57° E 19:12:46 10° S
SL-4 R/B 2.6 19:03:57 10° SSW 19:07:42 34° SE 19:11:12 10° ENE
ATLAS 5 CENTAUR R/B 3.1 19:04:08 10° NNW 19:09:36 42° NE 19:15:44 10° ESE
SL-08 RB Rocket 3.8 19:07:09 10° SSE 19:11:44 90° W 19:16:25 10° NNW
MetOp-A 4.2 19:08:16 10° SSE 19:13:32 61° ENE 19:18:48 10° N
Cosmos 1833 Rocket 3.3 19:09:30 10° SSE 19:14:27 33° ESE 19:19:26 10° NE
Cosmos 1697 Rocket 4.1 19:12:43 10° N 19:17:11 24° NE 19:21:19 11° ESE
Cosmos 2228 Rocket 3.3 19:15:00 10° N 19:19:19 52° E 19:23:36 10° SSE
SPOT 3 Rocket 3.9 19:14:48 10° SE 19:19:46 47° ENE 19:24:45 10° N
Cosmos 2251 Rocket 3.7 19:16:10 10° SSW 19:21:24 77° WNW 19:26:42 10° NNE
Cosmos 1515 Rocket 3.8 19:17:32 10° NNW 19:22:00 73° W 19:26:26 10° S
Cosmos 389 Rocket 3.6 19:19:14 10° NNE 19:22:12 26° ENE 19:24:21 15° SE
Cosmos 1812 3.8 19:20:51 10° NNE 19:24:09 27° ENE 19:26:34 15° SE
Cosmos 1727 Rocket 4.1 19:18:14 10° N 19:24:34 66° E 19:30:51 10° SSE
Cosmos 1656 4.0 19:23:45 10° NNW 19:29:04 50° ENE 19:33:31 15° SE
Cosmos 1633 4.2 19:25:52 10° SSW 19:29:09 36° WNW 19:32:28 10° N
IRIDIUM 104 4.5 19:24:39 10° SSE 19:29:41 53° E 19:34:45 10° NNE
Resurs 01 Rocket 2.3 19:27:31 14° SE 19:30:56 38° ENE 19:35:02 10° N
Cosmos 972 Rocket 3.8 19:30:38 10° NNW 19:35:37 75° ENE 19:40:04 12° SSE
FALCON 9 DEB 3.6 19:32:37 10° SSW 19:35:53 37° SE 19:39:08 10° ENE
Cosmos 1441 Rocket 3.4 19:32:38 10° S 19:36:19 49° E 19:39:59 10° NNE
IRIDIUM 114 4.3 19:33:40 10° S 19:38:48 65° E 19:43:59 10° N
Cosmos 614 Rocket 3.9 19:34:48 10° S 19:39:53 66° ESE 19:45:02 10° NNE
NOSS 3-2 (A) 4.3 19:36:58 11° SSE 19:40:46 22° ESE 19:45:13 10° ENE
IRIDIUM 103 4.3 19:42:44 10° S 19:47:57 80° E 19:53:10 10° N
USA 267 3.3 19:43:02 10° NE 19:49:36 86° NW 19:56:09 10° SW
Cosmos 1821 Rocket 3.9 19:44:00 10° S 19:50:02 69° E 19:56:12 10° NNE
COSMOS 2406 3.4 19:46:31 10° SSW 19:52:16 80° WNW 19:58:02 10° NNE
GP-B 4.3 19:48:38 10° NNE 19:52:16 24° E 19:53:14 23° ESE
Shenzhou-11 Module 2.4 19:52:35 10° WNW 19:54:51 39° N 19:55:30 30° NE
ERS-1 Rocket 4.5 19:56:08 17° E 19:57:49 20° ENE 20:01:26 10° NNE
CZ-2C R/B 4.1 19:53:38 10° N 19:58:13 68° WNW 20:02:42 10° SSW
Intercosmos 25 3.1 19:55:54 10° N 20:00:02 68° E 20:01:26 32° SSE
Lacrosse 5 4.3 19:58:48 10° NNW 20:01:20 14° NNE 20:03:51 10° NE
Cosmos 1862 4.0 19:57:37 10° SSW 20:01:35 57° W 20:05:35 10° N
Sich 1 3.0 19:58:01 10° S 20:02:26 85° E 20:06:54 10° N
Cosmos 2369 4.1 19:59:44 10° NNW 20:05:18 50° ENE 20:08:05 28° ESE
Cosmos 2082 Rocket 2.3 20:01:51 10° S 20:07:24 55° ESE 20:12:56 10° NNE
Cosmos 1954 Rocket 4.4 20:06:49 25° SSE 20:09:15 40° ESE 20:14:12 10° NE
Cosmos 1818 3.7 20:04:25 10° NNW 20:09:51 64° NE 20:12:24 31° SE
Cosmos 1535 Rocket 4.5 20:08:44 19° SSE 20:13:10 59° E 20:19:11 10° NNE
Spot 2 Rocket 3.8 20:11:25 31° SE 20:13:33 51° ENE 20:18:30 10° N
Cosmos 2278 4.4 20:09:11 10° N 20:14:33 39° ENE 20:16:44 29° ESE
Cosmos 2123 Rocket 4.2 20:09:00 10° N 20:15:06 55° E 20:18:06 30° SE
Meteor 2-20 4.5 20:10:46 10° N 20:16:54 65° E 20:20:08 29° SSE
Cosmos 1000 Rocket 4.5 20:12:17 10° N 20:18:35 85° W 20:23:05 20° S
Cosmos 1184 Rocket 3.9 20:21:01 32° NE 20:21:01 32° NE 20:23:14 10° NNE
Cosmos 1190 Rocket 3.9 20:14:57 10° SSW 20:20:12 89° ESE 20:25:32 10° NNE
Terra 3.4 20:21:08 20° ENE 20:21:44 20° ENE 20:25:11 10° NNE
Cosmos 2322 Rocket 4.4 20:20:09 10° NNE 20:21:56 11° NE 20:23:43 10° ENE
Meteor 1-4 Rocket 2.7 20:19:10 10° N 20:22:26 48° ENE 20:22:26 48° ENE
USA 234 3.9 20:18:46 22° E 20:22:49 48° NNE 20:29:01 10° NW
Cosmos 407 Rocket 3.8 20:17:51 10° SSW 20:23:09 70° WNW 20:28:28 10° NNE
Cosmos 1605 Rocket 4.2 20:21:08 32° SE 20:23:33 47° E 20:29:20 10° NNE
Cosmos 1666 Rocket 3.5 20:21:27 24° S 20:24:03 84° W 20:28:24 10° N
SL-8 R/B 3.7 20:22:39 10° WNW 20:27:28 73° SW 20:28:49 46° SE
MetOp-B 4.1 20:25:44 30° SSE 20:28:29 86° WSW 20:33:53 10° NNW
Meteor 1-27 Rocket 3.9 20:27:35 10° NNW 20:33:31 76° W 20:36:53 27° S
SPOT 5 3.4 20:35:54 34° ENE 20:35:59 34° ENE 20:39:54 10° N
USA 238 DEB 3.6 20:29:38 10° SSW 20:36:05 61° ESE 20:42:47 10° NE
USA 238 3.6 20:29:46 10° SSW 20:36:12 60° ESE 20:42:52 10° NE
BREEZE-M DEB (TANK) 3.3 20:36:02 10° WNW 20:39:00 23° WSW 20:39:00 23° WSW
SPOT 1/Viking Rocket 3.5 20:39:54 48° SSE 20:41:23 77° ENE 20:46:37 10° N
CZ-3A R/B 4.4 20:23:52 10° W 20:44:13 31° SSW 20:48:05 24° S
Cosmos 1980 Rocket 2.3 20:40:10 10° NNW 20:45:48 63° ENE 20:47:05 49° ESE
SL-4 R/B 3.3 20:43:35 10° W 20:47:16 37° NNW 20:50:43 10° NE
Cosmos 405 Rocket 4.0 20:49:21 29° NE 20:49:21 29° NE 20:51:25 10° NNE
Cosmos 2242 Rocket 4.4 20:43:50 10° N 20:47:29 36° ENE 20:47:29 36° ENE
Cosmos 1140 Rocket 4.2 20:43:46 10° SW 20:48:52 53° WNW 20:54:01 10° N
Genesis I 4.0 20:47:24 10° NNW 20:50:44 40° NE 20:50:44 40° NE
ATLAS 5 CENTAUR R/B 3.4 20:48:47 10° NW 20:54:21 39° WSW 20:57:17 26° SSW
USA 32 4.0 20:53:02 45° S 20:54:40 84° W 20:59:56 10° N
Cosmos 1633 Rocket 4.1 20:55:05 23° SW 20:57:23 43° WNW 21:01:37 10° N
Cosmos 1833 Rocket 4.3 20:53:16 10° WSW 20:58:19 34° WNW 21:03:23 10° N
Cosmos 1697 Rocket 3.2 20:56:00 10° NNW 21:01:26 51° WSW 21:03:04 38° SSW
Cosmos 1153 Rocket 4.4 21:03:26 57° SE 21:04:22 64° E 21:10:26 10° NNE
CENTAUR R/B 2.4 21:04:46 55° ESE 21:04:46 55° ESE 21:11:07 10° NE
Cosmos 1867 4.1 20:59:26 10° SW 21:04:47 59° NW 21:10:11 10° NNE
Resurs 01 Rocket 3.9 21:05:06 12° SW 21:07:33 18° W 21:10:38 10° NW
Meteor 1-18 Rocket 4.1 21:03:59 10° N 21:09:32 64° ENE 21:09:50 63° E
Okean 1-7 4.2 21:05:32 10° N 21:08:30 33° NE 21:08:30 33° NE
Cosmos 1850 Rocket 4.3 21:14:18 53° ENE 21:14:18 53° ENE 21:18:41 10° NNE
Cosmos 1447 Rocket 4.4 21:10:24 10° N 21:16:46 81° E 21:17:47 65° SSE
Meteor 2-4 Rocket 4.3 21:13:51 10° N 21:18:53 41° ENE 21:18:53 41° ENE
Cosmos 1470 Rocket 4.5 21:19:31 41° WSW 21:20:06 44° W 21:24:20 10° N
Cosmos 192 4.5 21:18:13 10° NNW 21:22:57 67° W 21:22:57 67° W
ATLAS 5 CENTAUR R/B 4.3 21:20:39 10° N 21:23:19 19° ENE 21:23:25 19° ENE
NOSS 3-2 (A) 3.9 21:25:24 10° SW 21:30:55 56° NW 21:37:12 10° NNE
Cosmos 921 Rocket 4.0 21:31:50 10° NNW 21:34:50 42° NW 21:34:50 42° NW
ERS-1 Rocket 3.6 21:36:09 47° WSW 21:36:14 47° W 21:41:06 10° NNW
NOSS 3-2 (C) 3.3 21:35:51 66° SW 21:36:42 81° NW 21:43:04 10° NNE
SL-16 R/B 2.6 21:39:06 10° NNW 21:44:17 54° NE 21:44:17 54° NE
Lacrosse 5 2.9 21:40:54 10° NNW 21:45:31 37° NE 21:45:31 37° NE
Cosmos 468 Rocket 4.2 21:41:07 10° NNW 21:45:45 68° NNW 21:45:45 68° NNW
Cosmos 1741 Rocket 4.3 21:48:23 65° NW 21:48:23 65° NW 21:53:11 10° NNE
Cosmos 2082 Rocket 4.4 21:47:25 10° WSW 21:51:49 23° NW 21:56:15 10° N
Terra 3.0 22:00:02 38° WNW 22:00:02 38° WNW 22:03:42 10° NNW
Cosmos 2100 Rocket 4.1 22:05:35 67° W 22:05:40 67° W 22:11:48 10° N
USA 234 3.5 22:06:06 52° WSW 22:06:06 52° WSW 22:12:07 10° NW
Cosmos 2322 Rocket 2.6 22:01:23 10° NNW 22:06:13 59° NNE 22:06:13 59° NNE
Meteor 1-11 Rocket 4.3 22:09:10 49° NNE 22:09:10 49° NNE 22:13:24 10° NNE
ATLAS 3B R/B 3.0 22:21:12 53° NE 22:21:12 53° NE 22:26:13 10° NE
Cosmos 2360 Rocket 3.0 22:15:47 10° NNW 22:20:19 43° NNE 22:20:19 43° NNE
Cosmos 2173 Rocket 4.4 22:21:11 54° W 22:21:16 54° W 22:27:17 10° N
Cosmos 1725 Rocket 4.2 22:27:20 70° N 22:27:20 70° N 22:32:51 10° N
Cosmos 1980 Rocket 4.2 22:25:39 10° WNW 22:28:51 17° W 22:28:51 17° W
Cosmos 2016 Rocket 4.4 22:39:51 58° WNW 22:39:51 58° WNW 22:45:45 10° N
Cosmos 2061 Rocket 4.4 22:41:23 56° WNW 22:41:23 56° WNW 22:46:59 10° N
Lacrosse 4 Rocket 4.3 22:45:23 12° NE 22:45:23 12° NE 22:45:45 10° NE
Cosmos 2333 Rocket 3.7 22:36:40 10° N 22:41:19 29° NE 22:41:19 29° NE
CENTAUR R/B 4.1 22:51:50 17° W 22:55:40 31° NW 23:01:49 10° NNE
SL-16 R/B 4.4 23:24:19 10° NW 23:26:08 16° WNW 23:26:08 16° WNW
Lacrosse 5 4.3 23:23:53 10° WNW 23:24:41 14° WNW 23:24:41 14° WNW
Cosmos 2219 Rocket 3.1 23:34:26 10° NNW 23:38:19 44° N 23:38:19 44° N
SL-16 R/B 4.4 23:46:15 18° E 23:48:16 21° ENE 23:52:48 10° NNE
CZ-2D R/B 4.2 23:52:10 10° NE 23:54:54 18° ENE 23:54:54 18° ENE
